IZ3ZOD-13 Weather Reports


Display with metric or nautical units.
time (UTC)temp
F
wind
direction
speed
MPH
gust
MPH
rain 1hr
in
rain 24hr
in
rain mn
in
humidity
%
barometer
mb
20260901020403 72 37 2.0 4.0 0.00 0.00 0.00 72 1016.2
20260901020004 72 28 2.0 7.0 0.00 0.00 0.00 72 1016.3
20260901015603 72 26 3.0 7.0 0.00 0.00 0.00 70 1016.2
20260901015203 72 24 3.0 7.0 0.00 0.00 0.00 70 1016.2
20260901014803 72 28 3.0 6.0 0.00 0.00 0.00 70 1016.1
20260901014403 72 32 4.0 9.0 0.00 0.00 0.00 70 1016.1
20260901014003 72 29 4.0 9.0 0.00 0.00 0.00 72 1016.0
20260901013603 73 21 3.0 9.0 0.00 0.00 0.00 73 1016.2
20260901013203 73 17 3.0 7.0 0.00 0.00 0.00 77 1016.1
20260901012803 73 25 3.0 6.0 0.00 0.00 0.00 79 1016.3
20260901012403 73 35 3.0 6.0 0.00 0.00 0.00 78 1016.1
20260901012216 73 37 3.0 6.0 0.00 0.00 0.00 78 1016.1
20260901011603 73 43 3.0 6.0 0.00 0.00 0.00 78 1016.2
20260901011203 74 46 3.0 6.0 0.00 0.00 0.00 78 1016.2
20260901010803 74 54 4.0 11.0 0.00 0.00 0.00 79 1016.0
20260901010403 74 55 5.0 11.0 0.00 0.00 0.00 79 1016.0
20260901010003 74 47 4.0 6.0 0.00 0.00 0.00 80 1015.9
20260901005603 74 43 4.0 9.0 0.00 0.00 0.00 81 1015.8
20260901005203 74 46 5.0 9.0 0.00 0.00 0.00 83 1015.8
20260901005016 74 48 5.0 9.0 0.00 0.00 0.00 83 1015.8
20260901004403 74 48 5.0 10.0 0.00 0.00 0.00 86 1015.9
20260901004003 74 46 5.0 10.0 0.00 0.00 0.00 87 1016.0
20260901003603 74 47 5.0 10.0 0.00 0.00 0.00 89 1016.0
20260901003203 74 41 4.0 8.0 0.00 0.00 0.00 90 1015.9
20260901003013 73 38 3.0 7.0 0.00 0.00 0.00 90 1016.0
20260901002612 73 32 3.0 7.0 0.00 0.00 0.00 90 1015.8
20260901002003 73 32 3.0 6.0 0.00 0.00 0.00 90 1015.9
20260901001603 73 31 3.0 6.0 0.00 0.00 0.00 90 1015.9
20260901001203 73 25 2.0 4.0 0.00 0.00 0.00 90 1015.7
20260901000803 73 22 2.0 3.0 0.00 0.00 0.00 90 1015.7
20260901000405 73 23 2.0 3.0 0.00 0.00 0.00 90 1015.6
20260901000214 73 22 1.0 3.0 0.00 0.00 0.00 90 1015.7
20260831235603 72 12 2.0 3.0 0.00 0.00 0.00 90 1015.6
20260831235203 72 16 2.0 3.0 0.00 0.00 0.00 90 1015.5
20260831234803 72 23 2.0 4.0 0.00 0.00 0.00 91 1015.5
20260831234403 72 23 2.0 4.0 0.00 0.00 0.00 91 1015.4
20260831234216 72 23 1.0 4.0 0.00 0.00 0.00 91 1015.3
20260831233603 71 18 1.0 2.0 0.00 0.00 0.00 91 1015.4
20260831233203 71 27 1.0 2.0 0.00 0.00 0.00 91 1015.1
20260831232803 71 38 1.0 2.0 0.00 0.00 0.00 91 1015.0
20260831232613 71 39 0.0 2.0 0.00 0.00 0.00 91 1015.2
20260831232213 71 44 0.0 1.0 0.00 0.00 0.00 91 1014.9
20260831231603 71 44 0.0 1.0 0.00 0.00 0.00 90 1014.8
20260831231203 71 44 0.0 1.0 0.00 0.00 0.00 90 1015.0
20260831230803 71 44 0.0 1.0 0.00 0.00 0.00 90 1014.8
20260831230403 71 0 0.0 0.0 0.00 0.00 0.00 91 1014.8
20260831230003 71 0 0.0 0.0 0.00 0.00 0.00 90 1014.8
20260831225603 71 0 0.0 0.0 0.00 0.00 0.00 90 1014.8
20260831225203 71 0 0.0 0.0 0.00 0.00 0.00 91 1014.6
20260831224803 71 0 0.0 0.0 0.00 0.00 0.00 90 1014.6
20260831224617 71 44 0.0 0.0 0.00 0.00 0.00 90 1014.6
20260831224003 71 44 0.0 1.0 0.00 0.00 0.00 90 1014.4
20260831223603 71 44 0.0 1.0 0.00 0.00 0.00 89 1014.4
20260831223415 71 0 0.0 0.0 0.00 0.00 0.00 90 1014.5
20260831223014 71 0 0.0 0.0 0.00 0.00 0.00 89 1014.2
20260831222403 72 44 0.0 0.0 0.00 0.00 0.00 89 1014.1
20260831222003 72 44 0.0 2.0 0.00 0.00 0.00 88 1014.2
20260831221603 72 44 0.0 2.0 0.00 0.00 0.00 88 1014.2
20260831221203 72 44 0.0 2.0 0.00 0.00 0.00 88 1014.3
20260831220803 72 45 0.0 1.0 0.00 0.00 0.00 88 1014.3
20260831220403 72 45 0.0 1.0 0.00 0.00 0.00 88 1014.2
20260831220215 72 45 0.0 1.0 0.00 0.00 0.00 88 1014.2
20260831215603 72 0 0.0 0.0 0.00 0.00 0.00 87 1014.2
20260831215203 73 45 0.0 0.0 0.00 0.00 0.00 87 1014.3
20260831214803 73 45 0.0 0.0 0.00 0.00 0.00 86 1014.3
20260831214613 73 45 0.0 0.0 0.00 0.00 0.00 86 1014.3
20260831214003 73 45 0.0 1.0 0.00 0.00 0.00 86 1014.2
20260831213603 73 45 0.0 1.0 0.00 0.00 0.00 86 1014.1
20260831213203 73 0 0.0 0.0 0.00 0.00 0.00 86 1014.3
20260831212803 73 45 0.0 0.0 0.00 0.00 0.00 85 1014.2
20260831212403 73 45 0.0 1.0 0.00 0.00 0.00 85 1014.1
20260831212003 74 45 0.0 1.0 0.00 0.00 0.00 85 1014.1
20260831211603 73 0 0.0 0.0 0.00 0.00 0.00 85 1014.1
20260831211203 74 0 0.0 0.0 0.00 0.00 0.00 84 1013.9
20260831211017 74 45 0.0 1.0 0.00 0.00 0.00 84 1013.9
20260831210616 74 45 1.0 2.0 0.00 0.00 0.00 84 1013.9
20260831210004 74 45 2.0 2.0 0.00 0.00 0.00 84 1014.0
20260831205815 73 45 2.0 2.0 0.00 0.00 0.00 85 1013.8
20260831205203 72 67 1.0 2.0 0.00 0.00 0.00 87 1013.9
20260831204803 73 89 1.0 2.0 0.00 0.00 0.00 86 1013.7
20260831204613 74 115 0.0 2.0 0.00 0.00 0.00 85 1013.9
20260831204213 74 0 0.0 0.0 0.00 0.00 0.00 83 1013.8
20260831203817 74 0 0.0 0.0 0.00 0.00 0.00 82 1013.8
20260831203203 75 0 0.0 0.0 0.00 0.00 0.00 80 1013.7
20260831202803 75 140 0.0 1.0 0.00 0.00 0.00 80 1013.7
20260831202403 75 140 0.0 1.0 0.00 0.00 0.00 80 1013.5
20260831202003 75 140 0.0 1.0 0.00 0.00 0.00 80 1013.5
20260831201814 75 0 0.0 0.0 0.00 0.00 0.00 81 1013.5
20260831201203 75 0 0.0 0.0 0.00 0.00 0.00 80 1013.5
20260831200803 75 0 0.0 0.0 0.00 0.00 0.00 80 1013.5
20260831200403 76 0 0.0 0.0 0.00 0.00 0.00 79 1013.6
20260831200003 76 0 0.0 0.0 0.00 0.00 0.00 79 1013.4
20260831195603 76 0 0.0 0.0 0.00 0.00 0.00 78 1013.5
20260831195203 76 146 0.0 1.0 0.00 0.00 0.00 78 1013.5
20260831194803 76 166 1.0 3.0 0.00 0.00 0.00 77 1013.5
20260831194403 77 162 1.0 4.0 0.00 0.00 0.00 77 1013.4
20260831194003 77 166 2.0 4.0 0.00 0.00 0.00 76 1013.4
20260831193603 77 163 2.0 4.0 0.00 0.00 0.00 76 1013.4
20260831193203 77 158 1.0 4.0 0.00 0.00 0.00 76 1013.2
20260831192803 77 155 2.0 4.0 0.00 0.00 0.00 76 1013.4
20260831192616 77 154 1.0 2.0 0.00 0.00 0.00 76 1013.3
20260831192003 77 158 2.0 3.0 0.00 0.00 0.00 75 1013.3
20260831191603 77 156 2.0 3.0 0.00 0.00 0.00 75 1013.3
20260831191414 78 156 2.0 3.0 0.00 0.00 0.00 75 1013.2
20260831190803 78 162 2.0 4.0 0.00 0.00 0.00 74 1013.1
20260831190403 78 168 2.0 4.0 0.00 0.00 0.00 74 1013.0
20260831190003 78 170 2.0 4.0 0.00 0.00 0.00 74 1013.2
20260831185603 78 168 2.0 4.0 0.00 0.00 0.00 73 1013.1
20260831185203 78 165 2.0 4.0 0.00 0.00 0.00 73 1012.8
20260831184803 78 160 1.0 4.0 0.00 0.00 0.00 73 1013.0
20260831184403 78 155 1.0 3.0 0.00 0.00 0.00 74 1013.1
20260831184003 78 154 1.0 3.0 0.00 0.00 0.00 73 1013.1
20260831183603 79 160 1.0 3.0 0.00 0.00 0.00 73 1012.8
20260831183203 79 155 1.0 3.0 0.00 0.00 0.00 72 1012.9
20260831182803 79 145 0.0 2.0 0.00 0.00 0.00 72 1012.9
20260831182403 80 144 0.0 2.0 0.00 0.00 0.00 71 1012.7
20260831182003 80 153 1.0 2.0 0.00 0.00 0.00 71 1012.7
20260831181815 80 157 1.0 4.0 0.00 0.00 0.00 70 1012.7
20260831181203 80 163 1.0 4.0 0.00 0.00 0.00 70 1012.8
20260831180803 80 159 0.0 2.0 0.00 0.00 0.00 71 1012.6
20260831180613 80 138 0.0 1.0 0.00 0.00 0.00 71 1012.6
20260831180003 80 138 0.0 1.0 0.00 0.00 0.00 70 1012.6
20260831175817 81 138 0.0 1.0 0.00 0.00 0.00 70 1012.7
20260831175203 81 138 0.0 1.0 0.00 0.00 0.00 69 1012.6
20260831174803 82 163 0.0 2.0 0.00 0.00 0.00 67 1012.6
20260831174403 83 163 0.0 2.0 0.00 0.00 0.00 65 1012.7
20260831174003 83 149 0.0 2.0 0.00 0.00 0.00 64 1012.8
20260831173603 84 118 0.0 3.0 0.00 0.00 0.00 63 1012.6
20260831173203 84 105 1.0 3.0 0.00 0.00 0.00 63 1012.7
20260831172803 85 88 0.0 3.0 0.00 0.00 0.00 62 1012.5
20260831172403 85 115 0.0 2.0 0.00 0.00 0.00 61 1012.6
20260831172003 86 174 0.0 2.0 0.00 0.00 0.00 60 1012.6
20260831171603 86 110 0.0 2.0 0.00 0.00 0.00 60 1012.9
20260831171203 87 141 1.0 4.0 0.00 0.00 0.00 58 1012.6
20260831170803 88 135 1.0 4.0 0.00 0.00 0.00 56 1012.8
20260831170403 89 153 1.0 2.0 0.00 0.00 0.00 49 1012.7
20260831170003 90 206 1.0 2.0 0.00 0.00 0.00 48 1012.9
20260831165813 90 212 1.0 2.0 0.00 0.00 0.00 48 1012.7
20260831165203 90 213 1.0 3.0 0.00 0.00 0.00 47 1012.7
20260831165016 90 202 1.0 3.0 0.00 0.00 0.00 46 1012.7
20260831164403 90 208 2.0 4.0 0.00 0.00 0.00 46 1012.7
20260831164003 90 221 2.0 6.0 0.00 0.00 0.00 45 1012.8
20260831163603 90 222 3.0 6.0 0.00 0.00 0.00 46 1012.8
20260831163203 90 213 2.0 6.0 0.00 0.00 0.00 45 1012.6
20260831162803 91 213 2.0 4.0 0.00 0.00 0.00 44 1012.9
20260831162403 91 216 2.0 4.0 0.00 0.00 0.00 44 1012.9
20260831162003 91 224 2.0 4.0 0.00 0.00 0.00 46 1013.1
20260831161817 91 225 2.0 4.0 0.00 0.00 0.00 44 1012.9
20260831161203 91 222 3.0 7.0 0.00 0.00 0.00 45 1013.2
20260831160803 91 220 3.0 7.0 0.00 0.00 0.00 44 1013.0
20260831160403 91 225 2.0 6.0 0.00 0.00 0.00 45 1013.0
20260831160003 92 246 2.0 4.0 0.00 0.00 0.00 44 1013.0
20260831155603 92 244 2.0 4.0 0.00 0.00 0.00 43 1013.0
20260831155203 92 236 2.0 4.0 0.00 0.00 0.00 43 1013.2
20260831154803 92 227 2.0 5.0 0.00 0.00 0.00 43 1013.0
20260831154403 91 236 3.0 8.0 0.00 0.00 0.00 44 1013.3
20260831154003 91 240 3.0 8.0 0.00 0.00 0.00 44 1013.2
20260831153815 91 234 3.0 8.0 0.00 0.00 0.00 44 1013.0
20260831153203 91 220 3.0 7.0 0.00 0.00 0.00 44 1013.2
20260831152803 92 213 3.0 6.0 0.00 0.00 0.00 45 1013.3
20260831152403 92 206 3.0 6.0 0.00 0.00 0.00 45 1013.2
20260831152003 92 196 3.0 6.0 0.00 0.00 0.00 45 1013.3
20260831151603 92 188 2.0 5.0 0.00 0.00 0.00 45 1013.3
20260831151416 92 193 3.0 5.0 0.00 0.00 0.00 45 1013.2
20260831150803 91 196 5.0 9.0 0.00 0.00 0.00 45 1013.3
20260831150403 91 192 4.0 9.0 0.00 0.00 0.00 44 1013.3
20260831150215 91 194 4.0 8.0 0.00 0.00 0.00 48 1013.2
20260831145603 91 200 5.0 8.0 0.00 0.00 0.00 45 1013.4
20260831145413 91 209 5.0 8.0 0.00 0.00 0.00 46 1013.3
20260831144803 91 222 4.0 8.0 0.00 0.00 0.00 45 1013.4
20260831144403 92 229 3.0 7.0 0.00 0.00 0.00 45 1013.4
20260831144216 92 230 3.0 7.0 0.00 0.00 0.00 46 1013.5
20260831143603 91 212 4.0 8.0 0.00 0.00 0.00 46 1013.7
20260831143203 92 209 4.0 8.0 0.00 0.00 0.00 46 1013.4
20260831142803 91 233 4.0 8.0 0.00 0.00 0.00 43 1013.5
20260831142403 91 236 5.0 7.0 0.00 0.00 0.00 47 1013.5
20260831142003 92 222 4.0 8.0 0.00 0.00 0.00 46 1013.3
20260831141813 91 217 4.0 8.0 0.00 0.00 0.00 46 1013.3
20260831141203 92 201 4.0 7.0 0.00 0.00 0.00 47 1013.3
20260831140803 92 214 4.0 7.0 0.00 0.00 0.00 44 1013.5
20260831140403 91 221 4.0 8.0 0.00 0.00 0.00 45 1013.5
20260831140003 91 199 4.0 8.0 0.00 0.00 0.00 44 1013.8
20260831135603 91 191 5.0 10.0 0.00 0.00 0.00 45 1013.6
20260831135203 92 190 4.0 10.0 0.00 0.00 0.00 43 1013.6
20260831134803 92 211 4.0 10.0 0.00 0.00 0.00 45 1013.6
20260831134613 92 212 4.0 7.0 0.00 0.00 0.00 43 1013.6
20260831134003 91 212 4.0 8.0 0.00 0.00 0.00 45 1013.6
20260831133603 92 214 4.0 8.0 0.00 0.00 0.00 46 1013.6
20260831133203 92 212 3.0 7.0 0.00 0.00 0.00 45 1013.7
20260831133015 92 216 3.0 4.0 0.00 0.00 0.00 45 1013.7
20260831132403 92 222 3.0 6.0 0.00 0.00 0.00 44 1013.7
20260831132003 92 213 4.0 8.0 0.00 0.00 0.00 46 1013.8
20260831131603 92 205 3.0 8.0 0.00 0.00 0.00 47 1013.7
20260831131203 92 199 3.0 8.0 0.00 0.00 0.00 45 1013.8
20260831131017 92 201 3.0 6.0 0.00 0.00 0.00 45 1013.9
20260831130403 92 194 4.0 8.0 0.00 0.00 0.00 46 1013.8
20260831130004 91 196 5.0 8.0 0.00 0.00 0.00 43 1014.1
20260831125603 92 189 4.0 8.0 0.00 0.00 0.00 43 1013.9
20260831125414 92 195 4.0 7.0 0.00 0.00 0.00 44 1014.0
20260831124803 92 192 4.0 8.0 0.00 0.00 0.00 43 1014.1
20260831124403 92 203 3.0 8.0 0.00 0.00 0.00 44 1014.0
20260831124003 91 215 3.0 8.0 0.00 0.00 0.00 46 1014.2
20260831123603 91 214 4.0 8.0 0.00 0.00 0.00 43 1014.2
20260831123416 91 211 4.0 8.0 0.00 0.00 0.00 44 1014.2
20260831122803 91 215 3.0 8.0 0.00 0.00 0.00 44 1014.2
20260831122615 91 224 3.0 7.0 0.00 0.00 0.00 43 1014.2
20260831122003 91 219 4.0 7.0 0.00 0.00 0.00 44 1014.4
20260831121814 90 205 4.0 11.0 0.00 0.00 0.00 45 1014.3
20260831121413 91 193 4.0 11.0 0.00 0.00 0.00 46 1014.2
20260831120803 91 201 4.0 8.0 0.00 0.00 0.00 45 1014.2
20260831120403 91 193 3.0 8.0 0.00 0.00 0.00 44 1014.4
20260831120216 91 204 3.0 8.0 0.00 0.00 0.00 45 1014.3
20260831115603 90 224 3.0 6.0 0.00 0.00 0.00 44 1014.3
20260831115203 91 231 3.0 6.0 0.00 0.00 0.00 46 1014.4
20260831114803 90 239 4.0 9.0 0.00 0.00 0.00 46 1014.5
20260831114403 90 242 4.0 9.0 0.00 0.00 0.00 44 1014.5
20260831114003 90 218 3.0 6.0 0.00 0.00 0.00 46 1014.5
20260831113603 90 211 3.0 9.0 0.00 0.00 0.00 46 1014.6
20260831113203 90 214 4.0 9.0 0.00 0.00 0.00 44 1014.6
20260831113016 90 220 4.0 9.0 0.00 0.00 0.00 47 1014.5
20260831112616 90 225 3.0 8.0 0.00 0.00 0.00 44 1014.6
20260831112003 90 216 3.0 8.0 0.00 0.00 0.00 50 1014.6
20260831111603 90 220 3.0 6.0 0.00 0.00 0.00 44 1014.7
20260831111203 90 218 3.0 6.0 0.00 0.00 0.00 48 1014.8
20260831110803 90 225 3.0 6.0 0.00 0.00 0.00 45 1014.7
20260831110403 90 210 4.0 8.0 0.00 0.00 0.00 46 1014.7
20260831110003 89 206 3.0 8.0 0.00 0.00 0.00 46 1014.7
20260831105603 89 204 3.0 8.0 0.00 0.00 0.00 49 1014.8
20260831105416 89 207 3.0 7.0 0.00 0.00 0.00 47 1014.9
20260831105015 89 228 3.0 6.0 0.00 0.00 0.00 47 1014.9
20260831104403 90 218 3.0 5.0 0.00 0.00 0.00 46 1014.8
20260831104003 89 190 3.0 8.0 0.00 0.00 0.00 48 1014.7
20260831103603 89 188 4.0 8.0 0.00 0.00 0.00 47 1014.9
20260831103203 89 206 3.0 8.0 0.00 0.00 0.00 47 1014.7
20260831102803 89 222 3.0 7.0 0.00 0.00 0.00 51 1014.9
20260831102403 89 228 2.0 5.0 0.00 0.00 0.00 49 1014.9
20260831102216 88 230 2.0 5.0 0.00 0.00 0.00 49 1015.0
20260831101603 89 232 2.0 7.0 0.00 0.00 0.00 47 1014.9
20260831101203 89 236 2.0 7.0 0.00 0.00 0.00 47 1015.0
20260831101014 89 227 2.0 3.0 0.00 0.00 0.00 47 1015.0
20260831100403 89 211 3.0 6.0 0.00 0.00 0.00 50 1015.1
20260831095603 88 231 2.0 4.0 0.00 0.00 0.00 51 1015.1
20260831095203 89 233 1.0 4.0 0.00 0.00 0.00 50 1015.1
20260831094803 89 235 1.0 4.0 0.00 0.00 0.00 51 1014.9
20260831094403 88 214 1.0 4.0 0.00 0.00 0.00 52 1015.1
20260831094214 88 208 2.0 4.0 0.00 0.00 0.00 51 1015.2
20260831093814 88 193 2.0 4.0 0.00 0.00 0.00 51 1015.1
20260831093203 87 214 2.0 4.0 0.00 0.00 0.00 54 1015.1
20260831092803 86 233 2.0 4.0 0.00 0.00 0.00 54 1015.3
20260831092403 87 191 2.0 3.0 0.00 0.00 0.00 53 1015.3
20260831092216 87 174 2.0 4.0 0.00 0.00 0.00 52 1015.3
20260831091603 87 160 2.0 4.0 0.00 0.00 0.00 53 1015.3
20260831091203 87 196 2.0 3.0 0.00 0.00 0.00 53 1015.2
20260831090803 87 231 1.0 3.0 0.00 0.00 0.00 52 1015.3
20260831090613 87 238 1.0 3.0 0.00 0.00 0.00 54 1015.3
20260831090003 87 225 1.0 3.0 0.00 0.00 0.00 53 1015.2
20260831085603 87 213 1.0 3.0 0.00 0.00 0.00 53 1015.2
20260831085203 87 219 1.0 3.0 0.00 0.00 0.00 53 1015.3
20260831085016 87 219 1.0 3.0 0.00 0.00 0.00 51 1015.2
20260831084615 86 236 1.0 3.0 0.00 0.00 0.00 54 1015.2
20260831084214 86 239 1.0 3.0 0.00 0.00 0.00 54 1015.2
20260831083603 86 254 1.0 2.0 0.00 0.00 0.00 52 1015.1
20260831083203 86 282 0.0 1.0 0.00 0.00 0.00 53 1015.5
20260831083012 86 286 0.0 1.0 0.00 0.00 0.00 52 1015.4
20260831082617 86 272 1.0 2.0 0.00 0.00 0.00 53 1015.4
20260831082003 85 268 1.0 2.0 0.00 0.00 0.00 54 1015.2
20260831081816 85 264 1.0 2.0 0.00 0.00 0.00 54 1015.2
20260831081203 84 258 1.0 2.0 0.00 0.00 0.00 55 1015.2
20260831080803 84 262 1.0 2.0 0.00 0.00 0.00 58 1015.0
20260831080403 83 271 0.0 1.0 0.00 0.00 0.00 58 1015.0
20260831080004 83 318 1.0 2.0 0.00 0.00 0.00 58 1015.0
20260831075603 83 356 1.0 2.0 0.00 0.00 0.00 60 1015.2
20260831075203 82 11 1.0 2.0 0.00 0.00 0.00 59 1015.1
20260831074803 82 15 1.0 2.0 0.00 0.00 0.00 60 1015.0
20260831074403 82 24 1.0 2.0 0.00 0.00 0.00 60 1014.9
20260831074003 81 23 1.0 2.0 0.00 0.00 0.00 61 1014.9
20260831073603 81 12 1.0 2.0 0.00 0.00 0.00 62 1014.8
20260831073203 80 9 2.0 3.0 0.00 0.00 0.00 64 1014.8
20260831072803 80 8 1.0 3.0 0.00 0.00 0.00 65 1014.7
20260831072403 80 6 1.0 3.0 0.00 0.00 0.00 64 1014.7
20260831072003 80 9 1.0 2.0 0.00 0.00 0.00 65 1014.8
20260831071603 79 16 1.0 2.0 0.00 0.00 0.00 67 1014.7
20260831071203 79 17 1.0 3.0 0.00 0.00 0.00 67 1014.8
20260831070803 78 16 1.0 3.0 0.00 0.00 0.00 68 1014.8
20260831070403 78 8 1.0 3.0 0.00 0.00 0.00 68 1014.9
20260831070003 78 1 1.0 2.0 0.00 0.00 0.00 68 1014.6
20260831065603 78 8 1.0 2.0 0.00 0.00 0.00 68 1014.5
20260831065413 78 13 1.0 2.0 0.00 0.00 0.00 69 1014.6
20260831064803 77 7 1.0 2.0 0.00 0.00 0.00 71 1014.7
20260831064403 78 353 0.0 2.0 0.00 0.00 0.00 69 1014.6
20260831064003 77 287 0.0 1.0 0.00 0.00 0.00 71 1014.5
20260831063603 77 286 0.0 1.0 0.00 0.00 0.00 71 1014.5
20260831063203 76 0 0.0 0.0 0.00 0.00 0.00 72 1014.4
20260831062803 76 0 0.0 0.0 0.00 0.00 0.00 72 1014.6
20260831062403 76 0 0.0 0.0 0.00 0.00 0.00 73 1014.5
20260831062212 76 0 0.0 0.0 0.00 0.00 0.00 73 1014.7
20260831061817 75 278 0.0 0.0 0.00 0.00 0.00 72 1014.5
20260831061203 75 278 0.0 1.0 0.00 0.00 0.00 73 1014.7
20260831060803 74 278 0.0 1.0 0.00 0.00 0.00 74 1014.4
20260831060615 74 278 0.0 1.0 0.00 0.00 0.00 74 1014.6
20260831060003 74 282 0.0 2.0 0.00 0.00 0.00 75 1014.6
20260831055814 74 284 0.0 2.0 0.00 0.00 0.00 76 1014.4
20260831055413 73 326 0.0 0.0 0.00 0.00 0.00 77 1014.6
20260831054803 72 334 0.0 2.0 0.00 0.00 0.00 80 1014.4
20260831054403 71 342 0.0 2.0 0.00 0.00 0.00 80 1014.4
20260831054003 71 21 0.0 2.0 0.00 0.00 0.00 81 1014.5
20260831053603 70 0 0.0 0.0 0.00 0.00 0.00 83 1014.2
20260831053203 70 0 0.0 0.0 0.00 0.00 0.00 83 1014.3
20260831052803 69 0 0.0 0.0 0.00 0.00 0.00 84 1014.3
20260831052403 68 0 0.0 0.0 0.00 0.00 0.00 86 1014.2
20260831052003 68 0 0.0 0.0 0.00 0.00 0.00 87 1014.1
20260831051603 67 0 0.0 0.0 0.00 0.00 0.00 88 1014.1
20260831051203 67 0 0.0 0.0 0.00 0.00 0.00 89 1014.0
20260831050803 67 0 0.0 0.0 0.00 0.00 0.00 89 1014.1
20260831050403 66 0 0.0 0.0 0.00 0.00 0.00 90 1014.1
20260831050003 66 0 0.0 0.0 0.00 0.00 0.00 91 1014.1
20260831045603 66 0 0.0 0.0 0.00 0.00 0.00 91 1013.9
20260831045414 66 0 0.0 0.0 0.00 0.00 0.00 91 1014.0
20260831044803 66 0 0.0 0.0 0.00 0.00 0.00 91 1014.1
20260831044403 66 0 0.0 0.0 0.00 0.00 0.00 91 1014.0
20260831044003 66 0 0.0 0.0 0.00 0.00 0.00 91 1014.2
20260831043603 66 0 0.0 0.0 0.00 0.00 0.00 91 1014.0
20260831043203 66 0 0.0 0.0 0.00 0.00 0.00 91 1014.0
20260831043015 66 0 0.0 0.0 0.00 0.00 0.00 91 1013.9
20260831042403 66 0 0.0 0.0 0.00 0.00 0.00 91 1013.9
20260831042003 66 0 0.0 0.0 0.00 0.00 0.00 91 1014.1
20260831041418 66 0 0.0 0.0 0.00 0.00 0.00 92 1013.9
20260831040803 66 0 0.0 0.0 0.00 0.00 0.00 91 1013.9
20260831040403 66 0 0.0 0.0 0.00 0.00 0.00 90 1014.0
20260831040216 66 0 0.0 0.0 0.00 0.00 0.00 90 1013.9
20260831035603 67 0 0.0 0.0 0.00 0.00 0.00 90 1013.7
20260831035203 66 0 0.0 0.0 0.00 0.00 0.00 90 1013.7
20260831034803 66 0 0.0 0.0 0.00 0.00 0.00 91 1014.0
20260831034403 66 0 0.0 0.0 0.00 0.00 0.00 91 1013.7
20260831034003 66 0 0.0 0.0 0.00 0.00 0.00 91 1013.9
20260831033603 66 0 0.0 0.0 0.00 0.00 0.00 91 1014.2
20260831033203 66 0 0.0 0.0 0.00 0.00 0.00 90 1014.0
20260831032803 67 0 0.0 0.0 0.00 0.00 0.00 89 1014.1
20260831032403 67 0 0.0 0.0 0.00 0.00 0.00 90 1014.2
20260831032003 67 0 0.0 0.0 0.00 0.00 0.00 90 1014.2
20260831031603 67 0 0.0 0.0 0.00 0.00 0.00 90 1014.3
20260831031203 67 0 0.0 0.0 0.00 0.00 0.00 90 1014.3
20260831030803 66 0 0.0 0.0 0.00 0.00 0.00 91 1014.3
20260831030403 66 0 0.0 0.0 0.00 0.00 0.00 90 1014.4
20260831030003 67 0 0.0 0.0 0.00 0.00 0.00 90 1014.3
20260831025603 67 0 0.0 0.0 0.00 0.00 0.00 90 1014.2
20260831025203 67 0 0.0 0.0 0.00 0.00 0.00 90 1014.4
20260831024803 67 0 0.0 0.0 0.00 0.00 0.00 90 1014.4
20260831024614 67 0 0.0 0.0 0.00 0.00 0.00 90 1014.3
20260831024003 67 0 0.0 0.0 0.00 0.00 0.00 88 1014.3
20260831023603 67 0 0.0 0.0 0.00 0.00 0.00 88 1014.3
20260831023203 67 0 0.0 0.0 0.00 0.00 0.00 89 1014.4
20260831022803 67 0 0.0 0.0 0.00 0.00 0.00 90 1014.4
20260831022403 67 0 0.0 0.0 0.00 0.00 0.00 90 1014.3
20260831022003 67 0 0.0 0.0 0.00 0.00 0.00 90 1014.2
20260831021603 67 0 0.0 0.0 0.00 0.00 0.00 90 1014.2
20260831021203 67 0 0.0 0.0 0.00 0.00 0.00 90 1014.4
20260831020803 67 0 0.0 0.0 0.00 0.00 0.00 89 1014.4